NDF3PC EDJA-EDSB

Flight info

Callsign NDF3PC
Flight time 0h 28m
Altitude 16000
Route LUPOL5A LUPOL Z79 SUDEN Z1 ETAGO Z3 LBU Z729 KRH KRH1L
Aircraft A321/M-SDE3FGHIRWY/LB1

Departure

Time 2026-05-07 16:36
Airport Memmingen Allgau Airport (EDJA)

Arrival

Time 2026-05-07 17:04
Airport Karlsruhe Baden-Baden Airport (EDSB)
Time Latitude Longitude Altitude Speed Heading
2026-05-07 16:23 47.98759 10.22879 2079 ft 0 kts 49°
2026-05-07 16:30 47.98759 10.22882 2079 ft 1 kts 59°
2026-05-07 16:31 47.98761 10.22963 2079 ft 15 kts 89°
2026-05-07 16:31 47.98800 10.23163 2078 ft 23 kts 70°
2026-05-07 16:31 47.98854 10.23387 2078 ft 23 kts 70°
2026-05-07 16:31 47.98904 10.23596 2078 ft 14 kts 70°
2026-05-07 16:32 47.98903 10.23701 2075 ft 0 kts 127°
2026-05-07 16:33 47.98901 10.23703 2076 ft 2 kts 127°
2026-05-07 16:33 47.98851 10.23771 2077 ft 17 kts 126°
2026-05-07 16:33 47.98870 10.23937 2075 ft 20 kts 63°
2026-05-07 16:33 47.98958 10.24153 2071 ft 28 kts 59°
2026-05-07 16:34 47.99069 10.24431 2068 ft 34 kts 59°
2026-05-07 16:34 47.99198 10.24750 2067 ft 39 kts 58°
2026-05-07 16:34 47.99345 10.25093 2062 ft 39 kts 58°
2026-05-07 16:34 47.99464 10.25450 2058 ft 37 kts 64°
2026-05-07 16:35 47.99538 10.25605 2056 ft 5 kts 339°
2026-05-07 16:35 47.99534 10.25583 2057 ft 5 kts 238°
2026-05-07 16:35 47.99398 10.25251 2059 ft 74 kts 240°
2026-05-07 16:35 47.99025 10.24313 2069 ft 135 kts 239°
2026-05-07 16:36 47.98466 10.22910 2234 ft 170 kts 245°
2026-05-07 16:36 47.97872 10.21356 2842 ft 181 kts 243°
2026-05-07 16:36 47.97204 10.19623 3166 ft 203 kts 242°
2026-05-07 16:36 47.96553 10.17727 3902 ft 205 kts 246°
2026-05-07 16:37 47.95910 10.15637 4367 ft 236 kts 245°
2026-05-07 16:37 47.95080 10.13427 4817 ft 250 kts 239°
2026-05-07 16:37 47.94121 10.11238 5520 ft 254 kts 237°
2026-05-07 16:37 47.93249 10.08954 6250 ft 255 kts 254°
2026-05-07 16:38 47.93242 10.06332 6830 ft 262 kts 286°
2026-05-07 16:38 47.94126 10.03946 7024 ft 266 kts 306°
2026-05-07 16:38 47.95413 10.01919 7658 ft 271 kts 313°
2026-05-07 16:38 47.96855 10.00080 8360 ft 277 kts 324°
2026-05-07 16:39 47.98619 9.98844 9030 ft 285 kts 339°
2026-05-07 16:39 48.00577 9.98171 9694 ft 292 kts 346°
2026-05-07 16:39 48.02586 9.97578 10283 ft 299 kts 344°
2026-05-07 16:39 48.04691 9.96879 10432 ft 321 kts 343°
2026-05-07 16:40 48.06911 9.96106 10551 ft 343 kts 343°
2026-05-07 16:40 48.09333 9.95256 10732 ft 362 kts 344°
2026-05-07 16:40 48.11780 9.94414 11208 ft 369 kts 344°
2026-05-07 16:40 48.14326 9.93558 11803 ft 373 kts 345°
2026-05-07 16:41 48.16878 9.92704 12402 ft 377 kts 343°
2026-05-07 16:41 48.19340 9.91388 12994 ft 377 kts 331°
2026-05-07 16:41 48.21541 9.89371 13586 ft 376 kts 319°
2026-05-07 16:41 48.23450 9.86696 14139 ft 376 kts 308°
2026-05-07 16:42 48.24969 9.83508 14686 ft 377 kts 299°
2026-05-07 16:42 48.26350 9.80150 15236 ft 380 kts 299°
2026-05-07 16:42 48.27744 9.76760 15768 ft 384 kts 299°
2026-05-07 16:42 48.29153 9.73341 15980 ft 386 kts 299°
2026-05-07 16:43 48.30588 9.69867 16031 ft 400 kts 299°
2026-05-07 16:43 48.32066 9.66283 16030 ft 406 kts 300°
2026-05-07 16:43 48.33554 9.62668 16029 ft 407 kts 300°
2026-05-07 16:43 48.35040 9.59055 16029 ft 407 kts 299°
2026-05-07 16:44 48.36527 9.55443 16029 ft 407 kts 301°
2026-05-07 16:44 48.38296 9.52096 16027 ft 410 kts 313°
2026-05-07 16:44 48.40524 9.49387 16027 ft 414 kts 326°
2026-05-07 16:44 48.43102 9.47444 16037 ft 417 kts 338°
2026-05-07 16:45 48.45880 9.46386 16042 ft 419 kts 351°
2026-05-07 16:45 48.48800 9.46194 16045 ft 421 kts 359°
2026-05-07 16:45 48.51730 9.46208 16045 ft 421 kts 359°
2026-05-07 16:45 48.54661 9.46223 16050 ft 421 kts 359°
2026-05-07 16:46 48.57592 9.46210 16054 ft 422 kts 358°
2026-05-07 16:46 48.60528 9.46174 16055 ft 422 kts 358°
2026-05-07 16:46 48.63459 9.46127 16053 ft 421 kts 358°
2026-05-07 16:46 48.66384 9.46077 16063 ft 421 kts 358°
2026-05-07 16:47 48.69320 9.46031 16057 ft 421 kts 358°
2026-05-07 16:47 48.72229 9.45615 16056 ft 419 kts 348°
2026-05-07 16:47 48.75037 9.44486 16054 ft 417 kts 339°
2026-05-07 16:47 48.77711 9.42819 15993 ft 413 kts 335°
2026-05-07 16:48 48.80333 9.41126 15580 ft 406 kts 335°
2026-05-07 16:48 48.82908 9.39463 15178 ft 399 kts 335°
2026-05-07 16:48 48.85405 9.37758 14789 ft 390 kts 330°
2026-05-07 16:48 48.87637 9.35492 14407 ft 381 kts 318°
2026-05-07 16:49 48.89493 9.32694 14019 ft 373 kts 307°
2026-05-07 16:49 48.90934 9.29508 13627 ft 369 kts 297°
2026-05-07 16:49 48.91973 9.25978 13194 ft 364 kts 287°
2026-05-07 16:49 48.92575 9.22262 12774 ft 360 kts 277°
2026-05-07 16:50 48.92974 9.18514 12355 ft 358 kts 278°
2026-05-07 16:50 48.93372 9.14788 11943 ft 356 kts 278°
2026-05-07 16:50 48.93769 9.11087 11543 ft 353 kts 278°
2026-05-07 16:50 48.94161 9.07418 11142 ft 350 kts 278°
2026-05-07 16:51 48.94549 9.03769 10747 ft 348 kts 278°
2026-05-07 16:51 48.94929 9.00147 10407 ft 346 kts 278°
2026-05-07 16:51 48.95307 8.96543 10064 ft 344 kts 278°
2026-05-07 16:51 48.95682 8.92985 9709 ft 337 kts 278°
2026-05-07 16:52 48.96047 8.89510 9343 ft 329 kts 278°
2026-05-07 16:52 48.96406 8.86106 8964 ft 320 kts 278°
2026-05-07 16:52 48.96750 8.82876 8594 ft 298 kts 278°
2026-05-07 16:52 48.97066 8.79901 8076 ft 280 kts 278°
2026-05-07 16:53 48.97374 8.76980 7711 ft 275 kts 278°
2026-05-07 16:53 48.97672 8.74110 7358 ft 274 kts 277°
2026-05-07 16:53 48.97964 8.71285 7018 ft 274 kts 277°
2026-05-07 16:53 48.98263 8.68381 6666 ft 274 kts 278°
2026-05-07 16:54 48.98552 8.65569 6320 ft 270 kts 277°
2026-05-07 16:54 48.98838 8.62805 5959 ft 262 kts 278°
2026-05-07 16:54 48.99122 8.60079 5596 ft 260 kts 277°
2026-05-07 16:54 48.99239 8.57352 5239 ft 257 kts 265°
2026-05-07 16:55 48.99084 8.54679 4894 ft 253 kts 264°
2026-05-07 16:55 48.98931 8.52014 4545 ft 252 kts 264°
2026-05-07 16:55 48.98780 8.49348 4174 ft 250 kts 264°
2026-05-07 16:55 48.98639 8.46782 3873 ft 235 kts 264°
2026-05-07 16:56 48.98505 8.44368 3835 ft 223 kts 264°
2026-05-07 16:56 48.98378 8.42100 3849 ft 209 kts 264°
2026-05-07 16:56 48.98140 8.37971 3865 ft 176 kts 263°
2026-05-07 16:57 48.98040 8.36219 3859 ft 157 kts 263°
2026-05-07 16:57 48.97947 8.34604 3902 ft 150 kts 264°
2026-05-07 16:57 48.97857 8.33038 3889 ft 152 kts 263°
2026-05-07 16:57 48.97757 8.31359 3901 ft 168 kts 263°
2026-05-07 16:58 48.97650 8.29536 3897 ft 172 kts 263°
2026-05-07 16:58 48.97425 8.27785 3900 ft 171 kts 250°
2026-05-07 16:58 48.96843 8.26209 3904 ft 173 kts 232°
2026-05-07 16:58 48.95893 8.25059 3914 ft 176 kts 217°
2026-05-07 16:59 48.94880 8.24038 3922 ft 169 kts 216°
2026-05-07 16:59 48.93956 8.23148 3914 ft 151 kts 216°
2026-05-07 16:59 48.93079 8.22311 3786 ft 147 kts 216°
2026-05-07 16:59 48.92214 8.21491 3656 ft 146 kts 216°
2026-05-07 17:00 48.91355 8.20678 3484 ft 145 kts 215°
2026-05-07 17:00 48.90498 8.19869 3315 ft 145 kts 215°
2026-05-07 17:00 48.89643 8.19062 3118 ft 144 kts 215°
2026-05-07 17:00 48.88803 8.18269 2938 ft 144 kts 216°
2026-05-07 17:01 48.87953 8.17468 2750 ft 144 kts 215°
2026-05-07 17:01 48.87103 8.16668 2573 ft 143 kts 215°
2026-05-07 17:01 48.86255 8.15870 2377 ft 143 kts 215°
2026-05-07 17:01 48.85409 8.15073 2193 ft 144 kts 214°
2026-05-07 17:02 48.84562 8.14277 1995 ft 142 kts 214°
2026-05-07 17:02 48.83718 8.13482 1780 ft 144 kts 213°
2026-05-07 17:02 48.82872 8.12687 1581 ft 143 kts 213°
2026-05-07 17:02 48.82024 8.11890 1328 ft 145 kts 212°
2026-05-07 17:03 48.81170 8.11088 1093 ft 146 kts 211°
2026-05-07 17:03 48.80296 8.10267 835 ft 149 kts 211°
2026-05-07 17:03 48.79400 8.09426 581 ft 153 kts 212°
2026-05-07 17:03 48.78493 8.08572 416 ft 151 kts 212°
2026-05-07 17:04 48.77707 8.07834 414 ft 110 kts 212°
2026-05-07 17:04 48.77383 8.07554 415 ft 13 kts 174°
2026-05-07 17:04 48.77337 8.07624 410 ft 10 kts 124°
2026-05-07 17:04 48.77313 8.07732 415 ft 12 kts 76°
2026-05-07 17:05 48.77373 8.07816 412 ft 13 kts 34°
2026-05-07 17:05 48.77454 8.07890 413 ft 15 kts 30°
2026-05-07 17:05 48.77552 8.07979 413 ft 17 kts 31°
2026-05-07 17:05 48.77656 8.08077 414 ft 18 kts 32°
2026-05-07 17:06 48.77764 8.08179 411 ft 19 kts 32°
2026-05-07 17:06 48.77877 8.08283 411 ft 19 kts 31°
2026-05-07 17:06 48.77993 8.08393 411 ft 20 kts 32°
2026-05-07 17:06 48.78114 8.08502 412 ft 17 kts 31°
2026-05-07 17:07 48.78128 8.08637 414 ft 15 kts 117°
2026-05-07 17:07 48.78093 8.08783 414 ft 12 kts 114°
2026-05-07 17:07 48.78076 8.08825 414 ft 0 kts 121°
2026-05-07 17:08 48.78072 8.08802 411 ft 0 kts 97°